{"data":{"norad_id":51970,"intl_designator":"2022-025Q","name":"STARLINK-3677","alt_names":[],"object_type":"PAYLOAD","status":"ACTIVE","operator":null,"country":"US","launch_date":"2022-03-09","launch_site_code":"AFETR","launch_vehicle":null,"mission":null,"orbit_class":"UNKNOWN","rcs_meters":null,"size_class":null,"mass_kg":null,"dimensions":null,"purposes":["comms"],"wikipedia_slug":null,"has_3d_model":false,"image_url":null,"decayed_at":null,"tle_current":{"epoch":"2026-09-19T12:28:53.714496Z","epoch_age_seconds":140874,"freshness":"FRESH","line1":"1 51970U 22025Q   26262.52006614 -.00000059  00000+0  98558-5 0  9999","line2":"2 51970  53.1594 215.4216 0001317  82.4570 277.6581 15.31698176250527","mean_motion":15.31698176,"eccentricity":0.0001317,"inclination_deg":53.1594,"raan_deg":215.4216,"arg_perigee_deg":82.457,"mean_anomaly_deg":277.6581,"bstar":9.8558e-6,"rev_number":25052,"period_min":94.013299915296,"perigee_km":469.84343466377,"apogee_km":471.64743029649,"semimajor_km":6848.8824324801,"source":"CELESTRAK","updated_at":"2026-09-20T09:00:39.977490Z"}}}